Regional Weather Roundup
Issued by NWS

Home | Current Version | Previous Version | Text Only | Print | Product List | Glossary On
Versions: 1 2 3 4 5 6 7 8 9 10 11 12 13 14 15 16 17 18 19 20 21 22 23 24 25 26 27 28 29 30 31 32 33 34 35 36 37 38 39 40 41 42 43 44 45 46 47 48 49 50
000
ASUS43 KLOT 230203
RWRIL

ILLINOIS REGIONAL WEATHER ROUNDUP
NATIONAL WEATHER SERVICE CHICAGO/ROMEOVILLE IL
800 PM CST SUN JAN 22 2017

NOTE: "FAIR" INDICATES FEW OR NO CLOUDS BELOW 12,000 FEET WITH NO
SIGNIFICANT WEATHER AND/OR OBSTRUCTIONS TO VISIBILITY.

* THESE STATIONS ARE NOT UNDER NWS QUALITY CONTROL. THEY ALSO MAY NOT
  REPORT WEATHER SUCH AS PRECIPITATION OR FOG.

ILZ001-002-007-009-015-016-024-230300-
NORTHWEST ILLINOIS

CITY           SKY/WX    TMP DP  RH WIND       PRES   REMARKS
MOLINE         CLEAR     37  33  85 NW7       29.69S WCI  32
STERLING*      CLOUDY    37  35  92 N8        29.68F WCI  31
SAVANNA*       CLOUDY    36  35  96 NW5       29.68F FOG     WCI  32
$$

ILZ003-004-008-010-011-017-018-230300-
NORTH CENTRAL ILLINOIS

CITY           SKY/WX    TMP DP  RH WIND       PRES   REMARKS
ROCKFORD       MOCLDY    36  35  96 N5        29.67F FOG     WCI  32
FREEPORT*      CLOUDY    37  36  94 N9        29.69F WCI  30
ROCHELLE*      CLOUDY    37  36  96 N10       29.67S FOG     WCI  29
DE KALB*       CLOUDY    37  36  98 NE12G17   29.67R FOG     WCI  29
PERU*          CLOUDY    38  35  89 N8        29.67R WCI  32
$$

ILZ005-006-012>014-019>023-230300-
NORTHEAST ILLINOIS

CITY           SKY/WX    TMP DP  RH WIND       PRES   REMARKS
CHICAGO-OHARE  CLOUDY    40  37  89 N7        29.65R
CHICAGO-MIDWAY CLOUDY    42  36  79 N9        29.65R
AURORA         CLOUDY    38  36  92 N10       29.66R FOG     WCI  31
LANSING*       CLOUDY    40  39  97 N7        29.65R
JOLIET*        CLOUDY    42  40  91 N3        29.66R
WAUKEGAN       CLOUDY    40  37  89 CALM      29.66R
DUPAGE AIRPORT CLOUDY    39  36  89 N9        29.65R WCI  33
KANKAKEE*      CLOUDY    40  38  93 N7        29.65R
WHEELING       CLOUDY    40  37  89 N6        29.67R
MORRIS*        CLOUDY    39  37  92 N5        29.65R FOG
ROMEOVILLE*    CLOUDY    41  40  96 NE16      29.65R
NORTHERLY ISL    N/A     37  36  96 N7          N/A  WCI  32
$$

LMZ740>746-230300-
SOUTHERN LAKE MICHIGAN

STATION/POSITION SKY/WX   TEMP    WIND        PRES    VSBY  WAVE
                          AIR SEA DIR/SP/G                  HT/PER
                          (F)     (DEG/KT/KT) (MB)    (MI)  (FT/S)
HARRISON CRIB              36     340/  8/  8   N/A
BURNHAM HARBOR             37     350/  7/ 10   N/A
CALUMET HARBOR                    350/  7/  9 1003.7R
BURNS HARBOR               36      10/ 10/ 14 1004.4
MICHIGAN CITY              37     350/ 11/ 11   N/A
$$

ILZ025>027-034>036-040-047-049-050-058-095>099-230300-
WEST-CENTRAL ILLINOIS

CITY           SKY/WX    TMP DP  RH WIND       PRES   REMARKS
QUINCY         CLOUDY    37  34  89 N13       29.72R WCI  29
GALESBURG*     CLOUDY    37  37 100 NW10      29.69R FOG     WCI  30
MACOMB*        CLOUDY    36  36  98 NW13      29.72R FOG     WCI  28
JACKSONVILLE*  CLEAR     38  36  92 NW10      29.69R FOG     WCI  31
PITTSFIELD*    CLOUDY    38  36  90 NW12G17   29.72R WCI  31
$$

ILZ028>032-037-038-041>044-048-051>054-059>061-230300-
CENTRAL ILLINOIS

CITY           SKY/WX    TMP DP  RH WIND       PRES   REMARKS
BLOOMINGTON    CLOUDY    38  36  92 N14       29.66R WCI  30
DECATUR        CLOUDY    41  39  93 N12       29.63R
PEORIA         CLOUDY    40  36  86 N5        29.68R
LACON*         CLOUDY    38  36  92 CALM      29.67R
LINCOLN*       PTCLDY    40  37  89 N8        29.67R
SPRINGFIELD    CLEAR     41  35  79 N12       29.67R
TAYLORVILLE    CLOUDY    40  37  89 N15       29.65R
$$

ILZ033-039-045-046-055>057-062-063-230300-
EAST-CENTRAL ILLINOIS

CITY           SKY/WX    TMP DP  RH WIND       PRES   REMARKS
CHAMPAIGN      CLOUDY    43  39  86 N21       29.61R FOG
MATTOON        CLOUDY    45  43  93 N17       29.59R FOG
PARIS*         CLOUDY    46  46 100 N10G20    29.59R FOG
$$

ILZ079-100>102-230300-
SOUTHWEST ILLINOIS

CITY           SKY/WX    TMP DP  RH WIND       PRES   REMARKS
ALTON          CLEAR     45  37  76 N16       29.68R
BELLEVILLE     CLOUDY    46  41  80 N16       29.65R
CAHOKIA*       CLOUDY    46  38  73 N17G23    29.67R
SPARTA*        CLOUDY    49  44  82 NW14G20   29.62R
$$

ILZ064>066-069>071-074>076-080>082-084>086-088>090-092>094-230300-
SOUTH-CENTRAL ILLINOIS

CITY           SKY/WX    TMP DP  RH WIND       PRES   REMARKS
CARBONDALE     CLOUDY    51  49  92 N18G29    29.55R
CAIRO*         CLOUDY    53  50  89 N23G31    29.47R
EFFINGHAM*     CLOUDY    47  46  97 N14G20    29.60R FOG
MARION         DRIZZLE   54  52  94 N13G22    29.54R
MT. VERNON     CLOUDY    49  46  90 N12G21    29.56R
SALEM*         CLOUDY    49  44  81 N20G25    29.59R
$$

ILZ067-068-072-073-078-083-087-091-230300-
SOUTHEAST ILLINOIS

CITY           SKY/WX    TMP DP  RH WIND       PRES   REMARKS
LAWRENCEVILLE  CLOUDY    53  50  89 N16       29.52R
FLORA*         CLOUDY    50  48  93 N15G25    29.56R FOG
FAIRFIELD*     CLOUDY    49  48  95 N12       29.54R FOG
HARRISBURG*    CLOUDY    54  51  89 N22G28    29.50R
ROBINSON*      CLOUDY    50  48  93 N13       29.55R
CARMI*         CLOUDY    53  50  92 N20G26    29.49R
$$

ABBREVIATIONS USED IN REMARKS
   TC - TEMPERATURE IN CELSIUS
  WCI - WIND CHILL INDEX
   HX - HEAT INDEX
  VSB - VISIBILITY
$$




USA.gov is the U.S. government's official web portal to all federal, state and local government web resources and services.